Zurück zum Katalog

SL-12 R/B(2)

AktivGEO
NORAD 27780·ROCKET BODY·🇷🇺 Russia

Gestartet Apr 24, 2003 von Baikonur Cosmodrome

Loading…

TLE

AktuellSource: Space-Track

Epoche: Sep 14, 2026, 19:26 UTC

1 27780U 03015F   26257.81037443 -.00000354  00000-0  00000-0 0  9998
2 27780  12.8499  19.7117 0009333  43.4712 330.6269  1.00190129 85403

Verfolge SL-12 R/B(2) in Echtzeit mit AllMySat

Download on the App Store